| time (UTC) | temp F | wind direction | speed knots | gust knots | rain 1hr in | rain 24hr in | rain mn in | humidity % | barometer mb |
| 20260505152322 | 56 | 220 | 9.6 | 13.0 | 0.00 | 0.00 | 0.00 | 81 | 1026.6 |
| 20260505151323 | 56 | 226 | 9.6 | 14.8 | 0.00 | 0.00 | 0.00 | 81 | 1026.1 |
| 20260505150421 | 56 | 225 | 8.7 | 10.4 | 0.00 | 0.00 | 0.00 | 82 | 1026.4 |
| 20260505140321 | 56 | 221 | 6.1 | 7.8 | 0.00 | 0.00 | 0.00 | 82 | 1025.8 |
| 20260505130227 | 56 | 225 | 8.7 | 11.3 | 0.00 | 0.00 | 0.00 | 81 | 1025.6 |
| 20260505124420 | 56 | 221 | 9.6 | 13.0 | 0.00 | 0.00 | 0.00 | 81 | 1025.4 |
| 20260505124321 | 56 | 224 | 7.8 | 11.3 | 0.00 | 0.00 | 0.00 | 81 | 1025.5 |
| 20260505123420 | 56 | 219 | 8.7 | 12.2 | 0.00 | 0.00 | 0.00 | 80 | 1025.4 |
| 20260505122420 | 57 | 224 | 8.7 | 10.4 | 0.00 | 0.00 | 0.00 | 81 | 1025.3 |
| 20260505121421 | 57 | 226 | 9.6 | 11.3 | 0.00 | 0.00 | 0.00 | 80 | 1025.4 |
| 20260505120422 | 57 | 223 | 9.6 | 11.3 | 0.00 | 0.00 | 0.00 | 80 | 1025.4 |
| 20260505115521 | 57 | 234 | 8.7 | 12.2 | 0.00 | 0.00 | 0.00 | 79 | 1025.2 |
| 20260505114521 | 57 | 226 | 10.4 | 15.6 | 0.00 | 0.00 | 0.00 | 79 | 1025.4 |
| 20260505113620 | 57 | 225 | 11.3 | 15.6 | 0.00 | 0.00 | 0.00 | 79 | 1025.3 |
| 20260505112622 | 58 | 226 | 7.8 | 10.4 | 0.00 | 0.00 | 0.00 | 77 | 1025.2 |
| 20260505111620 | 58 | 227 | 8.7 | 12.2 | 0.00 | 0.00 | 0.00 | 78 | 1025.1 |
| 20260505111521 | 58 | 225 | 11.3 | 13.9 | 0.00 | 0.00 | 0.00 | 78 | 1025.0 |
| 20260505110620 | 58 | 226 | 11.3 | 14.8 | 0.00 | 0.00 | 0.00 | 76 | 1025.0 |
| 20260505101720 | 59 | 230 | 8.7 | 12.2 | 0.00 | 0.00 | 0.00 | 76 | 1024.3 |
| 20260505100722 | 59 | 225 | 11.3 | 17.4 | 0.00 | 0.00 | 0.00 | 75 | 1024.4 |
| 20260505095722 | 59 | 225 | 12.2 | 17.4 | 0.00 | 0.00 | 0.00 | 76 | 1024.2 |
| 20260505093721 | 59 | 226 | 12.2 | 18.2 | 0.00 | 0.00 | 0.00 | 75 | 1024.0 |
| 20260505093622 | 59 | 224 | 13.0 | 18.2 | 0.00 | 0.00 | 0.00 | 75 | 1024.1 |
| 20260505090721 | 60 | 225 | 10.4 | 13.9 | 0.00 | 0.00 | 0.00 | 74 | 1023.8 |
| 20260505085820 | 60 | 232 | 10.4 | 15.6 | 0.00 | 0.00 | 0.00 | 74 | 1023.8 |
| 20260505084820 | 60 | 223 | 11.3 | 14.8 | 0.00 | 0.00 | 0.00 | 74 | 1023.6 |
| 20260505083822 | 61 | 225 | 11.3 | 13.0 | 0.00 | 0.00 | 0.00 | 72 | 1023.5 |
| 20260505081919 | 62 | 223 | 10.4 | 14.8 | 0.00 | 0.00 | 0.00 | 70 | 1023.3 |
| 20260505080920 | 62 | 231 | 12.2 | 15.6 | 0.00 | 0.00 | 0.00 | 69 | 1023.1 |
| 20260505075920 | 63 | 226 | 12.2 | 14.8 | 0.00 | 0.00 | 0.00 | 70 | 1023.0 |
| 20260505074920 | 63 | 234 | 10.4 | 13.9 | 0.00 | 0.00 | 0.00 | 69 | 1022.9 |
| 20260505074822 | 63 | 226 | 13.0 | 20.0 | 0.00 | 0.00 | 0.00 | 69 | 1023.0 |
| 20260505073821 | 64 | 225 | 10.4 | 14.8 | 0.00 | 0.00 | 0.00 | 70 | 1022.8 |
| 20260505072919 | 64 | 223 | 8.7 | 12.2 | 0.00 | 0.00 | 0.00 | 71 | 1022.8 |
| 20260505071920 | 64 | 227 | 7.8 | 10.4 | 0.00 | 0.00 | 0.00 | 71 | 1022.7 |
| 20260505070921 | 64 | 226 | 10.4 | 14.8 | 0.00 | 0.00 | 0.00 | 70 | 1022.4 |
| 20260505065930 | 65 | 227 | 10.4 | 13.0 | 0.00 | 0.00 | 0.00 | 70 | 1022.2 |
| 20260505064930 | 65 | 223 | 9.6 | 14.8 | 0.00 | 0.00 | 0.00 | 70 | 1022.1 |
| 20260505063930 | 65 | 225 | 10.4 | 13.9 | 0.00 | 0.00 | 0.00 | 70 | 1021.9 |
| 20260505063028 | 66 | 225 | 8.7 | 11.3 | 0.00 | 0.00 | 0.00 | 70 | 1021.9 |
| 20260505062032 | 66 | 225 | 10.4 | 12.2 | 0.00 | 0.00 | 0.00 | 71 | 1021.8 |
| 20260505055131 | 67 | 226 | 9.6 | 13.0 | 0.00 | 0.00 | 0.00 | 69 | 1021.9 |
| 20260505054130 | 67 | 225 | 8.7 | 10.4 | 0.00 | 0.00 | 0.00 | 69 | 1021.7 |
| 20260505053229 | 67 | 225 | 8.7 | 10.4 | 0.00 | 0.00 | 0.00 | 68 | 1021.7 |
| 20260505052230 | 67 | 225 | 8.7 | 10.4 | 0.00 | 0.00 | 0.00 | 69 | 1021.6 |
| 20260505050330 | 67 | 226 | 9.6 | 11.3 | 0.00 | 0.00 | 0.00 | 68 | 1021.5 |
| 20260505050229 | 67 | 226 | 9.6 | 13.9 | 0.00 | 0.00 | 0.00 | 68 | 1021.6 |
| 20260505041132 | 67 | 225 | 7.0 | 7.8 | 0.00 | 0.00 | 0.00 | 66 | 1021.0 |
| 20260505035231 | 68 | 223 | 8.7 | 11.3 | 0.00 | 0.00 | 0.00 | 64 | 1020.8 |
| 20260505034232 | 68 | 224 | 9.6 | 12.2 | 0.00 | 0.00 | 0.00 | 65 | 1020.6 |
| 20260505033328 | 69 | 225 | 7.8 | 9.6 | 0.00 | 0.00 | 0.00 | 64 | 1020.6 |
| 20260505032331 | 69 | 224 | 8.7 | 10.4 | 0.00 | 0.00 | 0.00 | 63 | 1020.3 |
| 20260505032230 | 69 | 227 | 7.8 | 9.6 | 0.00 | 0.00 | 0.00 | 63 | 1020.3 |
| 20260505031229 | 69 | 226 | 8.7 | 11.3 | 0.00 | 0.00 | 0.00 | 62 | 1020.3 |
| 20260505030230 | 69 | 226 | 8.7 | 11.3 | 0.00 | 0.00 | 0.00 | 62 | 1020.0 |
| 20260505025229 | 70 | 223 | 8.7 | 11.3 | 0.00 | 0.00 | 0.00 | 60 | 1020.1 |
| 20260505023229 | 71 | 226 | 9.6 | 12.2 | 0.00 | 0.00 | 0.00 | 59 | 1019.6 |
| 20260505021229 | 71 | 223 | 10.4 | 14.8 | 0.00 | 0.00 | 0.00 | 56 | 1019.7 |
| 20260505020229 | 71 | 221 | 13.9 | 18.2 | 0.00 | 0.00 | 0.00 | 56 | 1019.5 |
| 20260505015228 | 72 | 226 | 12.2 | 13.9 | 0.00 | 0.00 | 0.00 | 56 | 1019.7 |
| 20260505015131 | 72 | 225 | 13.0 | 18.2 | 0.00 | 0.00 | 0.00 | 55 | 1019.7 |
| 20260505014130 | 72 | 225 | 12.2 | 16.5 | 0.00 | 0.00 | 0.00 | 56 | 1019.6 |
| 20260505014030 | 72 | 226 | 13.0 | 16.5 | 0.00 | 0.00 | 0.00 | 55 | 1019.7 |
| 20260505013129 | 72 | 225 | 12.2 | 15.6 | 0.00 | 0.00 | 0.00 | 55 | 1019.7 |
| 20260505012229 | 72 | 222 | 12.2 | 16.5 | 0.00 | 0.00 | 0.00 | 56 | 1019.7 |
| 20260505011328 | 71 | 223 | 14.8 | 19.1 | 0.00 | 0.00 | 0.00 | 56 | 1019.6 |
| 20260505010329 | 71 | 223 | 13.9 | 18.2 | 0.00 | 0.00 | 0.00 | 56 | 1019.7 |
| 20260505004329 | 72 | 220 | 16.5 | 20.9 | 0.00 | 0.00 | 0.00 | 55 | 1019.8 |
| 20260505003330 | 71 | 224 | 15.6 | 20.9 | 0.00 | 0.00 | 0.00 | 54 | 1019.7 |
| 20260505002428 | 72 | 225 | 17.4 | 22.6 | 0.00 | 0.00 | 0.00 | 54 | 1019.7 |
| 20260505001429 | 71 | 226 | 14.8 | 20.9 | 0.00 | 0.00 | 0.00 | 55 | 1019.7 |
| 20260505000429 | 71 | 222 | 13.9 | 18.2 | 0.00 | 0.00 | 0.00 | 55 | 1019.6 |
| 20260504234528 | 71 | 228 | 13.0 | 18.2 | 0.00 | 0.00 | 0.00 | 55 | 1019.7 |
| 20260504233530 | 71 | 224 | 13.9 | 20.0 | 0.00 | 0.00 | 0.00 | 54 | 1019.8 |
| 20260504232629 | 71 | 222 | 13.0 | 20.9 | 0.00 | 0.00 | 0.00 | 54 | 1019.7 |
| 20260504231630 | 71 | 223 | 16.5 | 23.5 | 0.00 | 0.00 | 0.00 | 55 | 1019.5 |
| 20260504230629 | 71 | 224 | 14.8 | 21.7 | 0.00 | 0.00 | 0.00 | 55 | 1019.6 |
| 20260504225628 | 71 | 222 | 16.5 | 24.3 | 0.00 | 0.00 | 0.00 | 55 | 1019.6 |
| 20260504224728 | 70 | 219 | 14.8 | 21.7 | 0.00 | 0.00 | 0.00 | 56 | 1019.7 |
| 20260504223730 | 70 | 225 | 15.6 | 20.9 | 0.00 | 0.00 | 0.00 | 56 | 1020.0 |
| 20260504222730 | 70 | 227 | 14.8 | 20.0 | 0.00 | 0.00 | 0.00 | 58 | 1020.0 |
| 20260504220828 | 69 | 219 | 11.3 | 17.4 | 0.00 | 0.00 | 0.00 | 60 | 1020.3 |
| 20260504215828 | 69 | 215 | 13.9 | 17.4 | 0.00 | 0.00 | 0.00 | 60 | 1020.4 |
| 20260504215730 | 69 | 225 | 16.5 | 20.0 | 0.00 | 0.00 | 0.00 | 60 | 1020.5 |
| 20260504214729 | 68 | 225 | 14.8 | 20.9 | 0.00 | 0.00 | 0.00 | 60 | 1020.5 |
| 20260504214628 | 68 | 226 | 14.8 | 22.6 | 0.00 | 0.00 | 0.00 | 61 | 1020.5 |
| 20260504212630 | 67 | 222 | 14.8 | 20.9 | 0.00 | 0.00 | 0.00 | 63 | 1020.8 |
| 20260504211630 | 67 | 225 | 16.5 | 20.9 | 0.00 | 0.00 | 0.00 | 64 | 1020.9 |
| 20260504210729 | 67 | 220 | 16.5 | 23.5 | 0.00 | 0.00 | 0.00 | 64 | 1020.8 |
| 20260504204830 | 67 | 225 | 17.4 | 20.9 | 0.00 | 0.00 | 0.00 | 63 | 1021.0 |
| 20260504201030 | 66 | 209 | 11.3 | 15.6 | 0.00 | 0.00 | 0.00 | 65 | 1021.4 |
| 20260504195030 | 65 | 219 | 13.0 | 15.6 | 0.00 | 0.00 | 0.00 | 66 | 1021.6 |
| 20260504194128 | 65 | 225 | 14.8 | 20.9 | 0.00 | 0.00 | 0.00 | 66 | 1021.7 |
| 20260504193130 | 64 | 226 | 13.9 | 20.0 | 0.00 | 0.00 | 0.00 | 67 | 1021.7 |
| 20260504192229 | 64 | 227 | 11.3 | 19.1 | 0.00 | 0.00 | 0.00 | 66 | 1021.9 |
| 20260504191231 | 64 | 218 | 14.8 | 20.9 | 0.00 | 0.00 | 0.00 | 68 | 1021.9 |
| 20260504190228 | 64 | 226 | 18.2 | 24.3 | 0.00 | 0.00 | 0.00 | 68 | 1022.1 |
| 20260504185230 | 63 | 226 | 14.8 | 23.5 | 0.00 | 0.00 | 0.00 | 68 | 1021.9 |
| 20260504184129 | 63 | 225 | 14.8 | 18.2 | 0.00 | 0.00 | 0.00 | 68 | 1022.2 |
| 20260504183130 | 63 | 223 | 16.5 | 22.6 | 0.00 | 0.00 | 0.00 | 68 | 1022.2 |
| 20260504181230 | 63 | 225 | 10.4 | 15.6 | 0.00 | 0.00 | 0.00 | 68 | 1022.2 |
| 20260504175232 | 62 | 222 | 11.3 | 18.2 | 0.00 | 0.00 | 0.00 | 68 | 1022.4 |
| 20260504174328 | 62 | 222 | 14.8 | 20.9 | 0.00 | 0.00 | 0.00 | 68 | 1022.5 |
| 20260504172430 | 62 | 221 | 10.4 | 13.9 | 0.00 | 0.00 | 0.00 | 70 | 1022.6 |
| 20260504170428 | 62 | 207 | 11.3 | 15.6 | 0.00 | 0.00 | 0.00 | 70 | 1022.6 |